| time (UTC) | temp F | wind direction | speed MPH | gust MPH | rain 1hr in | rain 24hr in | rain mn in | humidity % | barometer mb |
| 20260906100031 | 68 | 105 | 0.0 | 0.0 | 0.00 | 0.10 | 0.00 | 97 | 1014.7 |
| 20260906094527 | 68 | 105 | 0.0 | 0.0 | 0.00 | 0.10 | 0.00 | 97 | 1014.7 |
| 20260906093036 | 67 | 138 | 0.0 | 1.0 | 0.00 | 0.10 | 0.00 | 98 | 1014.7 |
| 20260906091526 | 67 | 26 | 0.0 | 0.0 | 0.00 | 0.10 | 0.00 | 97 | 1014.5 |
| 20260906090039 | 67 | 26 | 0.0 | 0.0 | 0.00 | 0.10 | 0.00 | 97 | 1014.4 |
| 20260906084525 | 67 | 26 | 0.0 | 0.0 | 0.00 | 0.10 | 0.00 | 97 | 1014.5 |
| 20260906083030 | 67 | 26 | 0.0 | 0.0 | 0.00 | 0.10 | 0.00 | 97 | 1014.5 |
| 20260906081523 | 67 | 35 | 0.0 | 0.0 | 0.00 | 0.10 | 0.00 | 96 | 1014.5 |
| 20260906080021 | 68 | 130 | 0.0 | 0.0 | 0.00 | 0.10 | 0.00 | 96 | 1014.4 |
| 20260906074521 | 68 | 130 | 0.0 | 0.0 | 0.00 | 0.10 | 0.00 | 96 | 1014.5 |
| 20260906073019 | 68 | 130 | 0.0 | 0.0 | 0.00 | 0.10 | 0.00 | 95 | 1014.6 |
| 20260906071517 | 69 | 133 | 0.0 | 0.0 | 0.00 | 0.10 | 0.00 | 95 | 1014.6 |
| 20260906070016 | 69 | 133 | 0.0 | 0.0 | 0.00 | 0.10 | 0.00 | 95 | 1014.7 |
| 20260906064516 | 69 | 133 | 0.0 | 0.0 | 0.00 | 0.10 | 0.00 | 95 | 1014.7 |
| 20260906063024 | 69 | 133 | 0.0 | 0.0 | 0.00 | 0.10 | 0.00 | 96 | 1014.8 |
| 20260906061514 | 69 | 133 | 0.0 | 0.0 | 0.00 | 0.10 | 0.00 | 95 | 1014.8 |
| 20260906060011 | 69 | 134 | 0.0 | 0.0 | 0.00 | 0.10 | 0.00 | 95 | 1014.7 |
| 20260906054509 | 69 | 133 | 0.0 | 1.0 | 0.00 | 0.10 | 0.00 | 95 | 1014.4 |
| 20260906053008 | 70 | 153 | 0.0 | 3.0 | 0.00 | 0.10 | 0.00 | 94 | 1014.2 |
| 20260906051506 | 70 | 134 | 1.0 | 3.0 | 0.00 | 0.10 | 0.00 | 94 | 1014.1 |
| 20260906050002 | 70 | 108 | 0.0 | 1.0 | 0.00 | 0.10 | 0.10 | 93 | 1014.3 |
| 20260906044501 | 71 | 123 | 0.0 | 0.0 | 0.00 | 0.10 | 0.10 | 93 | 1014.4 |
| 20260906043001 | 71 | 123 | 0.0 | 0.0 | 0.00 | 0.10 | 0.10 | 91 | 1014.5 |
| 20260906041502 | 72 | 123 | 0.0 | 1.0 | 0.00 | 0.10 | 0.10 | 91 | 1014.4 |
| 20260906040100 | 72 | 123 | 0.0 | 1.0 | 0.00 | 0.10 | 0.10 | 90 | 1014.3 |
| 20260906034629 | 72 | 123 | 0.0 | 1.0 | 0.00 | 0.10 | 0.10 | 90 | 1014.3 |
| 20260906033102 | 72 | 123 | 0.0 | 2.0 | 0.00 | 0.10 | 0.10 | 90 | 1014.5 |
| 20260906031600 | 72 | 103 | 0.0 | 1.0 | 0.00 | 0.10 | 0.10 | 89 | 1014.7 |
| 20260906030058 | 72 | 109 | 0.0 | 1.0 | 0.00 | 0.10 | 0.10 | 91 | 1014.7 |
| 20260906024559 | 72 | 204 | 0.0 | 0.0 | 0.00 | 0.10 | 0.10 | 90 | 1014.6 |
| 20260906023057 | 73 | 204 | 0.0 | 1.0 | 0.00 | 0.10 | 0.10 | 90 | 1014.4 |
| 20260906021558 | 74 | 204 | 0.0 | 0.0 | 0.00 | 0.10 | 0.10 | 90 | 1014.0 |
| 20260906020100 | 75 | 204 | 0.0 | 1.0 | 0.00 | 0.10 | 0.10 | 88 | 1014.0 |
| 20260906014556 | 75 | 204 | 1.0 | 2.0 | 0.00 | 0.10 | 0.10 | 86 | 1014.4 |
| 20260906013105 | 75 | 65 | 0.0 | 0.0 | 0.00 | 0.10 | 0.10 | 86 | 1013.9 |
| 20260906011556 | 76 | 65 | 0.0 | 0.0 | 0.00 | 0.10 | 0.10 | 84 | 1013.5 |
| 20260906010055 | 78 | 113 | 0.0 | 0.0 | 0.00 | 0.10 | 0.10 | 80 | 1013.4 |
| 20260906004555 | 79 | 113 | 0.0 | 0.0 | 0.00 | 0.10 | 0.10 | 79 | 1013.0 |
| 20260906003053 | 80 | 216 | 1.0 | 3.0 | 0.00 | 0.10 | 0.10 | 77 | 1012.9 |
| 20260906001553 | 81 | 192 | 1.0 | 3.0 | 0.00 | 0.10 | 0.10 | 76 | 1012.7 |
| 20260906000104 | 83 | 220 | 2.0 | 4.0 | 0.00 | 0.10 | 0.10 | 73 | 1012.2 |
| 20260905234606 | 84 | 159 | 1.0 | 6.0 | 0.00 | 0.10 | 0.10 | 73 | 1011.6 |
| 20260905233049 | 83 | 155 | 0.0 | 3.0 | 0.00 | 0.10 | 0.10 | 74 | 1011.7 |
| 20260905231547 | 83 | 203 | 1.0 | 7.0 | 0.00 | 0.10 | 0.10 | 73 | 1011.9 |
| 20260905230046 | 84 | 208 | 3.0 | 7.0 | 0.00 | 0.10 | 0.10 | 71 | 1012.1 |
| 20260905224546 | 84 | 211 | 3.0 | 7.0 | 0.00 | 0.10 | 0.10 | 70 | 1012.0 |
| 20260905223050 | 84 | 198 | 4.0 | 11.0 | 0.00 | 0.10 | 0.10 | 70 | 1012.0 |
| 20260905221543 | 84 | 162 | 3.0 | 10.0 | 0.00 | 0.10 | 0.10 | 72 | 1011.9 |
| 20260905220041 | 84 | 177 | 4.0 | 9.0 | 0.00 | 0.10 | 0.10 | 72 | 1011.9 |
| 20260905214539 | 83 | 169 | 3.0 | 11.0 | 0.00 | 0.10 | 0.10 | 73 | 1012.0 |
| 20260905213037 | 83 | 160 | 5.0 | 9.0 | 0.00 | 0.10 | 0.10 | 74 | 1012.1 |
| 20260905211538 | 83 | 175 | 5.0 | 9.0 | 0.00 | 0.10 | 0.10 | 73 | 1012.3 |
| 20260905210046 | 82 | 234 | 4.0 | 12.0 | 0.00 | 0.10 | 0.10 | 74 | 1012.3 |
| 20260905204535 | 82 | 176 | 4.0 | 12.0 | 0.00 | 0.10 | 0.10 | 75 | 1012.6 |
| 20260905203026 | 81 | 150 | 3.0 | 11.0 | 0.00 | 0.10 | 0.10 | 75 | 1012.8 |
| 20260905201525 | 81 | 146 | 4.0 | 7.0 | 0.00 | 0.10 | 0.10 | 77 | 1013.1 |
| 20260905200024 | 80 | 135 | 2.0 | 7.0 | 0.00 | 0.10 | 0.10 | 80 | 1013.5 |
| 20260905194519 | 79 | 102 | 3.0 | 6.0 | 0.00 | 0.10 | 0.10 | 80 | 1013.8 |
| 20260905193017 | 78 | 160 | 2.0 | 6.0 | 0.00 | 0.10 | 0.10 | 84 | 1014.2 |
| 20260905191519 | 78 | 101 | 2.0 | 5.0 | 0.00 | 0.10 | 0.10 | 84 | 1014.4 |
| 20260905190018 | 77 | 127 | 2.0 | 6.0 | 0.00 | 0.10 | 0.10 | 87 | 1014.7 |
| 20260905184513 | 77 | 143 | 1.0 | 5.0 | 0.00 | 0.10 | 0.10 | 88 | 1014.9 |
| 20260905183007 | 75 | 115 | 2.0 | 5.0 | 0.00 | 0.10 | 0.10 | 89 | 1015.2 |
| 20260905181503 | 73 | 89 | 2.0 | 7.0 | 0.00 | 0.10 | 0.10 | 91 | 1015.2 |
| 20260905180002 | 74 | 110 | 3.0 | 7.0 | 0.00 | 0.10 | 0.10 | 91 | 1015.4 |
| 20260905174605 | 73 | 132 | 3.0 | 7.0 | 0.00 | 0.10 | 0.10 | 93 | 1015.6 |
| 20260905173055 | 71 | 160 | 1.0 | 6.0 | 0.01 | 0.10 | 0.10 | 96 | 1016.0 |
| 20260905171615 | 70 | 148 | 1.0 | 6.0 | 0.05 | 0.10 | 0.10 | 99 | 1016.2 |
| 20260905170101 | 68 | 145 | 2.0 | 9.0 | 0.05 | 0.10 | 0.10 | 100 | 1016.3 |
| 20260905164551 | 65 | 86 | 2.0 | 8.0 | 0.06 | 0.10 | 0.10 | 99 | 1016.6 |
| 20260905163053 | 64 | 78 | 2.0 | 13.0 | 0.08 | 0.09 | 0.09 | 99 | 1017.1 |
| 20260905161547 | 64 | 293 | 2.0 | 6.0 | 0.05 | 0.05 | 0.05 | 98 | 1017.5 |
| 20260905160049 | 64 | 39 | 5.0 | 13.0 | 0.05 | 0.05 | 0.05 | 98 | 1017.7 |
| 20260905154556 | 65 | 24 | 9.0 | 16.0 | 0.04 | 0.04 | 0.04 | 96 | 1017.8 |
| 20260905153041 | 67 | 34 | 6.0 | 11.0 | 0.01 | 0.01 | 0.01 | 94 | 1017.1 |
| 20260905151539 | 68 | 36 | 2.0 | 9.0 | 0.00 | 0.00 | 0.00 | 93 | 1016.8 |
| 20260905150042 | 68 | 18 | 0.0 | 2.0 | 0.00 | 0.00 | 0.00 | 92 | 1016.2 |
| 20260905144537 | 68 | 101 | 0.0 | 1.0 | 0.00 | 0.00 | 0.00 | 92 | 1016.0 |
| 20260905143032 | 68 | 75 | 0.0 | 2.0 | 0.00 | 0.00 | 0.00 | 93 | 1015.5 |
| 20260905141530 | 67 | 103 | 0.0 | 1.0 | 0.00 | 0.00 | 0.00 | 94 | 1015.3 |
| 20260905140028 | 66 | 98 | 0.0 | 1.0 | 0.00 | 0.00 | 0.00 | 96 | 1015.0 |
| 20260905134526 | 66 | 129 | 0.0 | 2.0 | 0.00 | 0.00 | 0.00 | 97 | 1015.1 |
| 20260905133024 | 65 | 184 | 0.0 | 3.0 | 0.00 | 0.00 | 0.00 | 97 | 1015.0 |
| 20260905131533 | 65 | 153 | 0.0 | 3.0 | 0.00 | 0.00 | 0.00 | 98 | 1014.9 |
| 20260905130021 | 65 | 133 | 0.0 | 6.0 | 0.00 | 0.01 | 0.00 | 98 | 1014.5 |
| 20260905124520 | 64 | 105 | 0.0 | 3.0 | 0.00 | 0.01 | 0.00 | 98 | 1014.3 |
| 20260905123026 | 64 | 120 | 0.0 | 0.0 | 0.00 | 0.00 | 0.00 | 99 | 1014.5 |
| 20260905121519 | 64 | 141 | 1.0 | 6.0 | 0.00 | 0.01 | 0.00 | 99 | 1014.5 |
| 20260905120024 | 64 | 106 | 0.0 | 3.0 | 0.00 | 0.01 | 0.00 | 99 | 1014.6 |
| 20260905114520 | 64 | 141 | 0.0 | 3.0 | 0.00 | 0.01 | 0.00 | 99 | 1014.7 |
| 20260905113017 | 64 | 163 | 1.0 | 4.0 | 0.00 | 0.01 | 0.00 | 99 | 1014.8 |
| 20260905111520 | 64 | 138 | 0.0 | 2.0 | 0.00 | 0.01 | 0.00 | 99 | 1014.6 |
| 20260905110014 | 64 | 145 | 1.0 | 5.0 | 0.00 | 0.01 | 0.00 | 99 | 1014.5 |
| 20260905104518 | 63 | 156 | 2.0 | 5.0 | 0.00 | 0.01 | 0.00 | 99 | 1014.2 |
| 20260905103014 | 63 | 115 | 0.0 | 3.0 | 0.00 | 0.01 | 0.00 | 99 | 1013.6 |
| 20260905101512 | 63 | 97 | 0.0 | 4.0 | 0.00 | 0.01 | 0.00 | 99 | 1013.3 |